Tracking 31027 objects as of 19-Jul-2025
HD Live streaming from Space Station
objects crossing your sky now

ORBCOMM FM 10

Track ORBCOMM FM 10 now!
10-day predictions
ORBCOMM FM 10 is classified as:


NORAD ID: 25113
Int'l Code: 1997-084B
Perigee: 743.4 km
Apogee: 750.6 km
Inclination: 45.0 °
Period: 99.6 minutes
Semi major axis: 7117 km
RCS: 0.4291 m2 (medium)
Launch date: December 23, 1997
Source: ORBCOMM (ORB)
Launch site: Pegasus launched from Eastern Range Air Space (ERAS)
Your satellite tracking list
Your tracking list is empty




NASA's NSSDC Master Catalog

Two Line Element Set (TLE):
1 25113U 97084B   25199.74329647  .00000693  00000-0  23460-3 0  9994
2 25113  45.0136 218.8095 0005098 342.1300  17.9372 14.45661951621089
Source of the keplerian elements: AFSPC